STARLINK-11514, 62514

Orbit data source: Space-Track

STARLINK-11514, 62514 is a payload satellite owned by SpaceX/Seattle (US) in LEO that was launched on Wed, 08 Jan 2025 UTC via an FALCON 9 launch vehicle from the Air Force Eastern Test Range (AFETR). Payload-class satellites include a variety of spacecraft equipped with specific instruments for various scientific and technological missions. These include communications satellites like Starlink; space stations such as the ISS; scientific satellites like the Hubble; Earth observation satellites from companies like Planet Labs, Umbra, and HawkEye 360; GPS; miniature CubeSats for education and research; and military/defense satellites.

Loading next visibility...
Identifier
62514, 2025-004D
Orbit
LEO
Country
Flag of USUS
Related business
Manufacturer
SpaceX/Seattle
Mission
Operational Commercial Communications
Bus & Motor
STARLINK V2MD, Unknown motor
Mass
960 kg wet, ~910 kg dry
Launch date (UTC)
2025-01-08 (10 months ago)
Launch vehicle
FALCON 9
Launch site
Air Force Eastern Test Range (AFETR)
Object type
Payload
Rocket body
Debris
Shape & HBR
Box + 2 Pan, 18.1 m
Radar Cross Section
36.964 m², Large (>1 m²)

Expand to show TLE details & history
Last TLE update: 16 hours ago

TLE from 16 hours ago
0 STARLINK-11514
1 62514U 25004D   25308.52064440  .00217940  00000-0  16529-2 0  9990
2 62514  42.9993 105.1225 0002510 271.4443  88.6137 15.70909489 47528
Epoch: 2025-11-04T12:29Z
TLE epoch observation values (Epoch: 2025-11-04T12:29:43.676Z)
Latitude
-0.00001°
Longitude
-126.31598°
Altitude
356.027 km
Speed
7.697 km/s
True Right ascension
07h 00m 29s
True Declination
0° 00' 00"
Sunlit
Object was in full shadow at epoch
Visualization orbit readout
Latitude
Unknown
Longitude
Unknown
Altitude
Unknown
Speed
Unknown
Apparent Right ascension
Unknown
Apparent Declination
Unknown
Sunlit
N/A
Visualization observer readout
Local Sidereal Time
00:23:49
Azimuth
Unknown
Elevation
Unknown
Doppler factor
Unknown
Orbital elements
Apogee altitude
359.969 km
Perigee altitude
356.587 km
Semi-major axis
6,736.415 km
Eccentricity
0.00025
Inclination
42.9993°
RAAN
105.1225°
Arg. of periapsis
271.4443°
True anomaly
88.64245°
Mean anomaly
88.6137°
Eccentric anomaly
88.62808°
Mean motion
3.92554 °/min
Orbital period
91.71 mins
BSTAR
0.0016529
Loading maneuver chart data...
Computing Atmospheric mass density...
Loading historical data...
Loading historical data...
Loading historical data...
Loading historical data...
Loading historical data...
Loading historical data...
Loading historical data...

Documentation

Showing up to 5 results
|